SCP
0 0 0 0 0 0 0 0 0 0 0 0 0 0 0 0 0 0 0 0 0 0 0 0 0 0 0 0 0 0 0 0 0 0 0 0 0 0
0 0 0 0 0 0 0 0 0 0 0 0 0 0 0 0 0 0 0 0 0 0 0 0 0 0 0 0 0 0 0 0 0 0 0 0 0 0
0 0 0 0 0 0 0 0 0 0 0 0 0 0 0 0 0 0 0 0 0 0 0 0 0 0 0 0 0 0 0 0 0 0 0 0 0 0
0 0 0 0 0 0 0 0 0 0 0 0 0 0 0 0 0 0 0 0 0 0 0 0 0 0 0 0 0 0 0 0 0 0 0 0 0 0
0 0 0 0 0 0 0 0 0 0 0 0 0 0 0 0 -0 0 -0 -0 -0 -0 -0 -0 0 0 0 0 0 0 0 0 0 0 0 0 0 0
0 0 0 0 0 0 0 0 0 0 0 0 0 0 0 0 0 0 0 0 -0 -0 -0 -0 -0 0 0 0 0 0 0 0 0 0 0 0 0 0
0 0 0 0 -0 0 0 0 0 0 0 0 0 0 0 0 0 0 0 0 0 0 -0 -0 -0 0 0 0 0 0 0 0 0 0 0 0 0 0
0 0 0 0 0 0 0 0 0 0 0 0 0 0 0 0 0 0 0 0 -0 0 0 -0 0 0 0 0 0 0 0 0 0 0 0 0 0 0
0 0 0 0 0 0 0 0 0 0 0 0 0 0 0 0 0 0 0 0 0 0 0 0 0 0 0 0 0 0 0 0 0 0 0 0 0 0
0 0 0 0 0 0 0 0 0 0 0 0 0 0 0 0 0 0 0 0 0 0 0 0 0 0 0 0 0 0 0 0 0 0 0 0 0 0
0 0 0 0 0 0 0 0 0 0 0 0 0 0 0 0 0 0 0 0 0 0 0 0 0 0 0 0 0 0 0 0 0 0 0 0 0 0
0 0 0 0 0 0 0 0 0 0 0 0 0 0 0 0 0 0 0 0 0 0 0 0 0 0 0 0 0 0 0 0 0 0 0 0 0 0
0 0 0 0 0 0 0 0 0 0 0 0 0 0 0 0 0 0 0 0 0 0 0 0 0 0 0 0 0 0 0 0 0 0 0 0 0 0
0 0 0 0 0 0 0 0 0 0 0 0 0 0 0 0 0 0 0 0 0 0 0 0 0 0 0 0 0 0 0 0 0 0 0 0 0 0
0 0 0 0 0 0 0 0 0 0 0 0 0 0 0 0 0 0 0 0 0 0 0 0 0 0 0 0 0 0 0 0 0 0 0 0 0 0
0 0 0 0 0 0 0 0 0 0 0 0 0 0 0 0 0 0 0 0 0 0 0 0 0 0 0 0 0 0 0 0 0 0 0 0 0 0
0 0 0 0 0 0 0 0 0 0 0 0 0 0 0 0 0 0 0 0 0 0 0 0 0 0 0 0 0 0 0 0 0 0 0 0 0 0
0 0 0 0 0 0 0 0 0 0 0 0 0 0 0 0 0 0 0 0 0 0 0 0 0 0 0 0 0 0 0 0 0 0 0 0 0 0
0 0 0 0 0 0 0 0 0 0 0 0 0 0 0 0 0 0 0 0 0 -0 -0 -0 -0 0 0 0 0 0 0 0 0 0 0 0 0 0
0 0 0 0 0 0 0 0 0 0 0 0 0 0 0 0 0 0 0 0 -0 -0 -0 -0 0 0 0 0 0 0 0 0 0 0 0 0 0 0
0 0 0 0 0 0 0 0 0 0 0 0 0 0 0 0 0 0 0 0 -0 -0 -0 -0 0 0 0 0 0 0 0 0 0 0 0 0 0 0
0 0 0 0 0 0 0 0 0 0 0 0 0 0 0 0 0 0 0 0 -0 -0 -0 -0 0 0 0 0 0 0 0 0 0 0 0 0 0 0
0 0 0 0 0 0 0 0 0 0 0 0 0 0 0 0 0 0 0 0 -0 -0 -0 -0 0 0 0 0 0 0 0 0 0 0 0 0 0 0
Wind_Speed_500mb
43 43 44 43 43 44 46 46 44 61 115 54 44 67 79 72 76 82 87 84 81 84 89 88 88 81 83 94 111 97 93 88 85 81 76 78 76 69
43 43 42 43 43 43 44 43 42 46 72 89 90 83 87 93 95 89 86 80 85 87 84 87 91 92 90 83 101 114 104 97 92 96 83 84 87 74
40 42 43 45 46 47 49 49 49 51 67 111 95 101 104 101 103 102 99 97 94 80 97 88 88 95 97 87 85 110 105 107 98 105 97 92 95 81
45 47 48 51 51 55 57 59 60 62 64 100 112 114 107 108 108 106 102 102 101 93 97 97 93 89 98 97 88 104 111 120 114 110 115 100 102 93
48 49 51 52 53 59 58 66 67 58 66 79 112 105 103 90 92 92 94 93 88 92 88 91 96 97 88 92 95 87 114 123 115 118 121 116 113 107
49 50 53 52 57 61 72 63 60 65 72 83 95 106 95 93 85 91 104 92 94 85 90 90 92 94 96 86 86 91 96 123 124 114 129 124 123 120
52 53 52 54 53 56 56 57 65 74 80 84 93 97 99 97 93 95 99 103 103 86 92 91 84 86 91 95 88 83 93 111 122 118 128 139 132 128
55 55 61 58 67 64 50 59 63 72 81 86 97 98 108 96 97 97 101 105 119 89 89 104 89 92 90 94 101 90 83 90 118 121 124 141 137 131
55 66 71 70 73 69 79 74 74 71 68 76 89 92 104 104 108 109 105 106 114 120 100 117 107 106 100 99 96 103 86 77 104 117 120 135 140 133
65 70 70 74 72 70 83 96 95 86 81 77 78 91 101 109 109 113 115 117 118 111 98 103 104 99 99 97 94 100 94 75 86 117 118 126 131 134
70 69 69 73 75 77 87 91 93 100 92 80 84 89 92 90 87 86 97 96 102 103 103 93 98 94 91 100 99 94 90 72 70 99 120 120 125 133
75 71 75 70 68 76 79 84 95 97 99 103 105 102 97 92 72 66 80 86 95 92 108 94 82 80 97 81 79 83 87 79 69 84 107 123 120 130
77 73 79 64 73 75 73 80 73 82 91 90 95 100 100 94 78 75 76 85 92 105 109 76 89 96 82 69 68 65 72 75 75 82 105 122 122 136
65 73 75 77 84 81 78 69 68 77 82 84 90 96 99 96 86 82 86 84 80 78 80 73 77 73 65 64 66 78 71 62 61 79 102 107 121 128
64 70 80 86 84 83 80 78 80 80 81 83 87 92 90 86 85 89 86 81 80 67 62 65 66 63 59 68 60 62 64 51 64 81 94 117 119 110
77 86 84 81 79 80 84 83 82 80 78 81 84 86 87 81 86 85 86 81 74 72 67 60 54 46 36 45 48 48 39 32 55 85 96 96 106 108
75 84 86 85 87 88 86 84 84 82 82 81 80 84 86 83 81 80 81 76 69 67 73 60 45 38 32 28 25 34 32 43 42 85 102 87 99 105
77 81 85 85 87 87 88 88 85 82 82 81 80 78 81 85 81 77 77 73 66 62 65 55 43 31 29 20 18 26 26 37 35 69 102 111 99 100
80 83 84 85 87 86 84 82 83 81 79 80 80 78 76 79 78 73 74 73 68 59 58 49 35 25 22 18 16 19 27 33 47 66 82 98 109 98
81 82 84 84 85 85 83 81 80 80 77 77 78 76 74 74 77 70 70 70 68 58 53 42 30 21 20 18 12 9 18 34 59 75 75 78 90 82
84 83 81 81 81 81 80 79 77 78 75 75 74 74 71 71 71 67 64 63 62 54 48 43 30 18 15 15 8 10 14 36 52 76 75 80 91 78
83 81 80 79 79 78 78 78 79 75 74 70 71 70 68 66 68 66 59 62 59 55 47 36 24 13 10 9 12 21 25 28 39 59 72 83 95 60
81 80 80 78 76 76 75 76 77 76 71 68 67 66 63 64 65 63 58 52 51 52 42 33 24 15 12 7 15 30 35 43 44 47 42 49 72 46
Wind_Direction_500mb
334 334 334 332 330 328 324 323 320 316 311 317 320 308 306 308 298 299 297 295 287 282 280 277 276 274 276 272 256 257 250 251 240 242 230 231 220 218
341 342 340 339 338 334 331 325 319 307 301 308 310 309 306 306 308 306 302 297 293 289 278 275 274 270 270 276 262 260 253 249 242 238 237 228 224 217
346 347 346 344 343 340 334 329 323 316 303 303 306 308 311 314 313 312 310 306 302 290 291 285 275 273 268 266 268 256 255 252 243 234 234 230 226 215
354 352 350 346 343 339 335 330 327 322 312 308 311 313 315 317 317 315 313 311 308 304 302 297 290 277 271 266 261 260 264 254 245 237 229 232 225 214
351 347 344 341 335 333 333 328 327 318 305 306 308 311 312 313 312 308 307 305 305 305 303 301 300 293 280 274 265 258 255 252 248 233 227 229 223 216
345 342 339 333 330 334 330 327 321 318 317 310 306 306 308 311 309 308 305 303 301 298 296 296 296 295 294 286 276 264 254 254 248 242 230 226 223 216
341 337 336 335 335 322 327 328 323 321 316 311 307 307 307 309 307 305 301 302 299 299 298 295 296 292 287 292 286 277 261 252 254 246 233 225 221 220
336 337 339 338 329 337 330 324 321 318 314 310 307 305 304 306 306 304 301 300 299 300 299 293 294 289 285 283 287 284 284 253 249 251 236 224 220 218
338 340 339 338 340 334 329 325 320 316 309 308 305 305 304 305 305 303 300 296 293 295 294 289 292 286 280 283 279 283 279 266 252 249 235 227 218 216
339 340 338 341 337 331 329 325 325 321 319 313 306 303 302 302 300 297 297 296 294 294 293 282 288 284 282 280 277 278 279 264 252 246 235 226 216 213
339 340 341 336 337 335 327 323 322 323 325 317 310 308 308 307 305 303 301 298 293 289 292 284 285 285 281 282 276 271 274 268 257 244 231 225 212 210
338 338 337 335 331 330 328 324 323 327 323 322 321 320 322 322 315 309 311 308 308 307 291 307 303 289 288 281 264 266 266 267 262 250 226 221 205 192
335 331 329 329 328 330 330 326 326 320 321 322 325 325 325 328 325 317 312 312 305 303 294 304 295 290 280 255 271 267 267 267 259 247 220 216 198 193
327 322 324 327 330 332 331 328 324 326 332 331 331 331 331 328 328 329 324 315 307 302 303 308 303 300 279 264 260 265 263 259 249 237 209 203 191 189
320 321 324 328 329 330 334 333 333 337 338 335 335 334 332 328 334 329 326 321 319 319 320 318 310 306 279 258 255 257 260 249 231 220 187 181 182 177
323 320 324 326 328 331 333 335 337 339 339 338 334 335 338 335 334 333 328 328 327 328 325 329 318 308 281 251 251 259 262 226 205 195 175 175 177 180
314 320 327 330 331 331 332 334 337 339 339 338 337 338 340 341 334 335 334 334 330 328 329 336 329 317 293 275 260 261 258 229 197 177 172 167 174 180
322 325 327 328 328 330 331 332 334 337 337 338 340 339 341 342 339 338 337 336 333 329 333 335 329 322 309 289 254 247 244 233 192 167 169 169 161 175
326 326 326 327 327 328 328 328 329 332 335 337 338 340 340 342 343 340 336 336 335 333 336 338 332 320 321 308 290 238 235 222 183 163 158 170 177 176
326 324 324 324 324 324 325 326 326 329 332 334 336 339 341 341 343 343 338 337 333 338 338 339 334 320 316 304 278 260 219 208 182 164 160 163 167 168
324 322 322 322 323 323 323 324 324 324 328 330 333 336 340 341 341 344 340 336 336 334 334 330 335 331 327 315 226 178 168 190 189 182 171 168 165 159
323 322 322 322 322 323 322 322 321 323 323 327 329 334 338 339 341 341 342 335 332 332 331 330 328 312 294 281 187 158 148 177 177 173 175 181 172 161
324 322 321 321 322 321 320 319 319 320 320 322 324 329 333 337 340 339 340 336 328 330 330 326 323 310 293 262 189 155 143 144 162 168 168 183 181 180
Wind_Speed_850mb
43 43 44 43 43 44 46 46 44 61 115 54 44 67 79 72 76 82 87 84 81 84 89 88 88 81 83 94 111 97 93 88 85 81 76 78 76 69
43 43 42 43 43 43 44 43 42 46 72 89 90 83 87 93 95 89 86 80 85 87 84 87 91 92 90 83 101 114 104 97 92 96 83 84 87 74
40 42 43 45 46 47 49 49 49 51 67 111 95 101 104 101 103 102 99 97 94 80 97 88 88 95 97 87 85 110 105 107 98 105 97 92 95 81
45 47 48 51 51 55 57 59 60 62 64 100 112 114 107 108 108 106 102 102 101 93 97 97 93 89 98 97 88 104 111 120 114 110 115 100 102 93
48 49 51 52 53 59 58 66 67 58 66 79 112 105 103 90 92 92 94 93 88 92 88 91 96 97 88 92 95 87 114 123 115 118 121 116 113 107
49 50 53 52 57 61 72 63 60 65 72 83 95 106 95 93 85 91 104 92 94 85 90 90 92 94 96 86 86 91 96 123 124 114 129 124 123 120
52 53 52 54 53 56 56 57 65 74 80 84 93 97 99 97 93 95 99 103 103 86 92 91 84 86 91 95 88 83 93 111 122 118 128 139 132 128
55 55 61 58 67 64 50 59 63 72 81 86 97 98 108 96 97 97 101 105 119 89 89 104 89 92 90 94 101 90 83 90 118 121 124 141 137 131
55 66 71 70 73 69 79 74 74 71 68 76 89 92 104 104 108 109 105 106 114 120 100 117 107 106 100 99 96 103 86 77 104 117 120 135 140 133
65 70 70 74 72 70 83 96 95 86 81 77 78 91 101 109 109 113 115 117 118 111 98 103 104 99 99 97 94 100 94 75 86 117 118 126 131 134
70 69 69 73 75 77 87 91 93 100 92 80 84 89 92 90 87 86 97 96 102 103 103 93 98 94 91 100 99 94 90 72 70 99 120 120 125 133
75 71 75 70 68 76 79 84 95 97 99 103 105 102 97 92 72 66 80 86 95 92 108 94 82 80 97 81 79 83 87 79 69 84 107 123 120 130
77 73 79 64 73 75 73 80 73 82 91 90 95 100 100 94 78 75 76 85 92 105 109 76 89 96 82 69 68 65 72 75 75 82 105 122 122 136
65 73 75 77 84 81 78 69 68 77 82 84 90 96 99 96 86 82 86 84 80 78 80 73 77 73 65 64 66 78 71 62 61 79 102 107 121 128
64 70 80 86 84 83 80 78 80 80 81 83 87 92 90 86 85 89 86 81 80 67 62 65 66 63 59 68 60 62 64 51 64 81 94 117 119 110
77 86 84 81 79 80 84 83 82 80 78 81 84 86 87 81 86 85 86 81 74 72 67 60 54 46 36 45 48 48 39 32 55 85 96 96 106 108
75 84 86 85 87 88 86 84 84 82 82 81 80 84 86 83 81 80 81 76 69 67 73 60 45 38 32 28 25 34 32 43 42 85 102 87 99 105
77 81 85 85 87 87 88 88 85 82 82 81 80 78 81 85 81 77 77 73 66 62 65 55 43 31 29 20 18 26 26 37 35 69 102 111 99 100
80 83 84 85 87 86 84 82 83 81 79 80 80 78 76 79 78 73 74 73 68 59 58 49 35 25 22 18 16 19 27 33 47 66 82 98 109 98
81 82 84 84 85 85 83 81 80 80 77 77 78 76 74 74 77 70 70 70 68 58 53 42 30 21 20 18 12 9 18 34 59 75 75 78 90 82
84 83 81 81 81 81 80 79 77 78 75 75 74 74 71 71 71 67 64 63 62 54 48 43 30 18 15 15 8 10 14 36 52 76 75 80 91 78
83 81 80 79 79 78 78 78 79 75 74 70 71 70 68 66 68 66 59 62 59 55 47 36 24 13 10 9 12 21 25 28 39 59 72 83 95 60
81 80 80 78 76 76 75 76 77 76 71 68 67 66 63 64 65 63 58 52 51 52 42 33 24 15 12 7 15 30 35 43 44 47 42 49 72 46
Wind_Direction_850mb
334 334 334 332 330 328 324 323 320 316 311 317 320 308 306 308 298 299 297 295 287 282 280 277 276 274 276 272 256 257 250 251 240 242 230 231 220 218
341 342 340 339 338 334 331 325 319 307 301 308 310 309 306 306 308 306 302 297 293 289 278 275 274 270 270 276 262 260 253 249 242 238 237 228 224 217
346 347 346 344 343 340 334 329 323 316 303 303 306 308 311 314 313 312 310 306 302 290 291 285 275 273 268 266 268 256 255 252 243 234 234 230 226 215
354 352 350 346 343 339 335 330 327 322 312 308 311 313 315 317 317 315 313 311 308 304 302 297 290 277 271 266 261 260 264 254 245 237 229 232 225 214
351 347 344 341 335 333 333 328 327 318 305 306 308 311 312 313 312 308 307 305 305 305 303 301 300 293 280 274 265 258 255 252 248 233 227 229 223 216
345 342 339 333 330 334 330 327 321 318 317 310 306 306 308 311 309 308 305 303 301 298 296 296 296 295 294 286 276 264 254 254 248 242 230 226 223 216
341 337 336 335 335 322 327 328 323 321 316 311 307 307 307 309 307 305 301 302 299 299 298 295 296 292 287 292 286 277 261 252 254 246 233 225 221 220
336 337 339 338 329 337 330 324 321 318 314 310 307 305 304 306 306 304 301 300 299 300 299 293 294 289 285 283 287 284 284 253 249 251 236 224 220 218
338 340 339 338 340 334 329 325 320 316 309 308 305 305 304 305 305 303 300 296 293 295 294 289 292 286 280 283 279 283 279 266 252 249 235 227 218 216
339 340 338 341 337 331 329 325 325 321 319 313 306 303 302 302 300 297 297 296 294 294 293 282 288 284 282 280 277 278 279 264 252 246 235 226 216 213
339 340 341 336 337 335 327 323 322 323 325 317 310 308 308 307 305 303 301 298 293 289 292 284 285 285 281 282 276 271 274 268 257 244 231 225 212 210
338 338 337 335 331 330 328 324 323 327 323 322 321 320 322 322 315 309 311 308 308 307 291 307 303 289 288 281 264 266 266 267 262 250 226 221 205 192
335 331 329 329 328 330 330 326 326 320 321 322 325 325 325 328 325 317 312 312 305 303 294 304 295 290 280 255 271 267 267 267 259 247 220 216 198 193
327 322 324 327 330 332 331 328 324 326 332 331 331 331 331 328 328 329 324 315 307 302 303 308 303 300 279 264 260 265 263 259 249 237 209 203 191 189
320 321 324 328 329 330 334 333 333 337 338 335 335 334 332 328 334 329 326 321 319 319 320 318 310 306 279 258 255 257 260 249 231 220 187 181 182 177
323 320 324 326 328 331 333 335 337 339 339 338 334 335 338 335 334 333 328 328 327 328 325 329 318 308 281 251 251 259 262 226 205 195 175 175 177 180
314 320 327 330 331 331 332 334 337 339 339 338 337 338 340 341 334 335 334 334 330 328 329 336 329 317 293 275 260 261 258 229 197 177 172 167 174 180
322 325 327 328 328 330 331 332 334 337 337 338 340 339 341 342 339 338 337 336 333 329 333 335 329 322 309 289 254 247 244 233 192 167 169 169 161 175
326 326 326 327 327 328 328 328 329 332 335 337 338 340 340 342 343 340 336 336 335 333 336 338 332 320 321 308 290 238 235 222 183 163 158 170 177 176
326 324 324 324 324 324 325 326 326 329 332 334 336 339 341 341 343 343 338 337 333 338 338 339 334 320 316 304 278 260 219 208 182 164 160 163 167 168
324 322 322 322 323 323 323 324 324 324 328 330 333 336 340 341 341 344 340 336 336 334 334 330 335 331 327 315 226 178 168 190 189 182 171 168 165 159
323 322 322 322 322 323 322 322 321 323 323 327 329 334 338 339 341 341 342 335 332 332 331 330 328 312 294 281 187 158 148 177 177 173 175 181 172 161
324 322 321 321 322 321 320 319 319 320 320 322 324 329 333 337 340 339 340 336 328 330 330 326 323 310 293 262 189 155 143 144 162 168 168 183 181 180